This is the latest recevied weather packets stored in our database for station/object DL9NEE-10. If no packets are shown the sender has not sent any weather packets the latest 10 day(s).
| Time | Temp. | Humidity | Pressure | Rain* | Wind** | Luminosity | Snow |
|---|---|---|---|---|---|---|---|
| 1778092792 | 15° C | 72% | 1008.5 hPa | - | - | - | - |
| 1778091892 | 15° C | 71% | 1008.5 hPa | - | - | - | - |
| 1778090992 | 16.11° C | 67% | 1008.4 hPa | - | - | - | - |
| 1778090092 | 16.67° C | 64% | 1008.1 hPa | - | - | - | - |
| 1778089192 | 17.22° C | 63% | 1007.6 hPa | - | - | - | - |
| 1778088292 | 17.78° C | 63% | 1007.1 hPa | - | - | - | - |
| 1778087391 | 17.78° C | 62% | 1007.3 hPa | - | - | - | - |
| 1778086491 | 18.33° C | 61% | 1007.5 hPa | - | - | - | - |
| 1778085591 | 18.89° C | 60% | 1007.4 hPa | - | - | - | - |
| 1778084691 | 18.89° C | 60% | 1007.3 hPa | - | - | - | - |
| 1778083791 | 19.44° C | 58% | 1007.2 hPa | - | - | - | - |
| 1778082891 | 19.44° C | 57% | 1007.2 hPa | - | - | - | - |
| 1778081991 | 20° C | 57% | 1007.4 hPa | - | - | - | - |
| 1778081091 | 20° C | 57% | 1007.5 hPa | - | - | - | - |
| 1778080191 | 20.56° C | 57% | 1007.3 hPa | - | - | - | - |
| 1778079290 | 20.56° C | 55% | 1007.3 hPa | - | - | - | - |
| 1778078390 | 20.56° C | 52% | 1007 hPa | - | - | - | - |
| 1778077490 | 21.11° C | 51% | 1007 hPa | - | - | - | - |
| 1778076590 | 21.67° C | 51% | 1007 hPa | - | - | - | - |
| 1778075690 | 22.22° C | 51% | 1007 hPa | - | - | - | - |
| 1778074790 | 22.78° C | 50% | 1007 hPa | - | - | - | - |
| 1778073890 | 23.33° C | 47% | 1007.2 hPa | - | - | - | - |
| 1778072989 | 22.78° C | 47% | 1007.3 hPa | - | - | - | - |
| 1778072089 | 22.78° C | 46% | 1007.3 hPa | - | - | - | - |
| 1778071189 | 23.33° C | 45% | 1007.6 hPa | - | - | - | - |
* Rain since midnight (hover to see other rain measurements)
** Current wind speed in m/s (hover to see current wind gust speed)